BMCB-12 Weather Reports


time (UTC)temp
C
wind
direction
speed
KPH
gust
KPH
rain 1hr
cm
rain 24hr
cm
rain mn
cm
humidity
%
barometer
mb
20260507134059 15 24 1.6 4.8 0.23 3.17 0.48 65 1017.5
20260507133059 14 252 0.0 1.6 0.23 3.17 0.48 61 1017.4
20260507132058 14 255 0.0 1.6 0.05 2.97 0.25 56 1017.5
20260507131059 14 279 0.0 1.6 0.03 2.95 0.23 59 1017.5
20260507130058 14 55 1.6 3.2 0.03 2.95 0.23 56 1017.6
20260507124100 14 34 1.6 4.8 0.05 2.95 0.23 60 1017.5
20260507123101 14 67 1.6 4.8 0.05 2.95 0.23 61 1017.4
20260507120058 15 57 4.8 11.3 0.03 2.92 0.23 55 1017.3
20260507115100 15 38 4.8 11.3 0.05 2.92 0.23 60 1017.2
20260507112103 15 50 4.8 9.7 0.03 2.90 0.20 59 1017.4
20260507111058 15 246 3.2 8.0 0.20 2.90 0.20 61 1017.4
20260507110058 14 1 3.2 6.4 0.20 2.90 0.20 63 1017.5
20260507105100 13 235 3.2 8.0 0.20 2.90 0.20 65 1017.5
20260506203106 9 53 4.8 11.3 0.03 2.69 2.69 83 1013.4
20260506195104 10 55 4.8 11.3 0.05 2.69 2.69 79 1012.9
20260506194106 10 55 4.8 9.7 0.03 2.69 2.69 79 1012.8
20260506193105 10 56 4.8 8.0 0.03 2.69 2.69 78 1012.8
20260506191104 11 64 1.6 4.8 0.03 2.69 2.69 78 1012.3
20260506190105 11 68 1.6 6.4 2.69 2.69 2.69 79 1012.3
20260506185106 11 18 1.6 3.2 2.69 2.69 2.69 85 1012.1
20260506184100 11 30 1.6 3.2 2.67 2.67 2.67 83 1011.9
20260506183105 11 106 0.0 1.6 2.67 2.67 2.67 84 1011.8
20260506182105 11 359 0.0 1.6 2.67 2.67 2.67 85 1011.7
20260506180104 11 320 0.0 1.6 2.67 2.67 2.67 87 1011.4